Location: East Grinstead
(51.1167°N, 0.0167°W)
Time: 21:44:57
(UTC+00:00)

Daily predictions for brighter satellites

Satellite Brightness Start Highest point End
(mag) Time Altitude Azimuth Time Altitude Azimuth Time Altitude Azimuth
Thor Agena Rocket 3.9 16:23:17 10° SE 16:28:12 45° ENE 16:33:05 10° N
CENTAUR R/B 2.8 16:22:38 10° WSW 16:28:26 68° NW 16:35:52 10° NE
USA 290 2.3 16:28:49 10° NNW 16:32:03 55° ENE 16:35:15 10° SE
Cosmos 1484 Rocket 2.5 16:29:13 10° SSE 16:32:40 59° ENE 16:36:08 10° N
Cosmos 1544 Rocket 3.9 16:28:51 10° SSE 16:33:03 45° E 16:37:17 10° NNE
SL-16 R/B 2.7 16:27:15 10° NNE 16:33:23 55° ESE 16:39:26 10° S
Cosmos 1844 Rocket 4.5 16:31:10 10° N 16:33:46 13° NNE 16:36:22 10° NE
Lacrosse 5 rocket 1.5 16:30:09 10° W 16:33:50 51° NNW 16:37:26 10° NE
Cosmos 1980 Rocket 4.0 16:33:59 10° ESE 16:35:17 11° E 16:36:35 10° E
Iridium 51 3.6 16:35:21 10° S 16:38:29 80° E 16:41:43 10° N
Lacrosse 4 Rocket 2.5 16:35:18 10° WSW 16:39:03 35° NW 16:42:45 10° NNE
BREEZE M DEB (TANK) 4.2 16:37:32 10° SSW 16:39:06 14° SSE 16:40:21 10° ESE
Meteor 1-27 4.4 16:35:35 10° SSW 16:41:23 85° W 16:47:11 10° NNE
CORIOLIS 4.3 16:37:15 10° SE 16:42:23 52° ENE 16:47:35 10° N
Cosmos 2263 Rocket 2.9 16:37:37 10° NNW 16:42:39 31° NE 16:47:40 10° ESE
Cosmos 2228 3.0 16:39:34 10° S 16:43:49 85° W 16:48:06 10° N
CZ-2D R/B 3.8 16:46:22 10° SE 16:49:01 25° ENE 16:51:40 10° N
Okean 1-7 Rocket 4.0 16:46:09 10° N 16:50:18 39° ENE 16:54:24 10° SE
Cosmos 1455 Rocket 4.4 16:47:00 10° SW 16:51:06 40° WNW 16:55:15 10° N
Cosmos 1602 Rocket 3.6 16:47:57 10° N 16:52:18 58° ENE 16:56:35 10° SSE
Cosmos 1461 3.3 16:51:40 10° SSW 16:55:18 39° ESE 16:58:30 13° NE
Cosmos 1933 4.2 16:54:40 10° SSE 16:57:56 27° E 17:01:12 10° NNE
Cosmos 2227 Rocket 2.3 16:53:50 10° NNW 16:59:25 57° NE 17:04:58 10° SE
USA 215 3.6 16:53:50 11° ENE 17:00:04 56° N 17:06:26 10° W
Cosmos 1634 Rocket 4.3 16:54:06 10° SSW 17:00:16 72° WNW 17:06:28 10° N
IRS-1C 4.2 16:55:14 10° SE 17:00:23 53° ENE 17:05:34 10° N
YAOGAN 1 3.9 16:58:28 10° ESE 17:01:19 18° ENE 17:04:11 10° NNE
IRIDIUM 103 4.4 16:56:22 10° N 17:01:33 57° E 17:06:41 10° SSE
Cosmos 1743 2.2 16:59:38 10° N 17:02:54 90° SW 17:06:07 10° S
NOSS 7 (H) 3.9 17:00:05 10° NW 17:03:00 74° NE 17:06:06 10° SE
Cosmos 2369 Rocket 4.0 16:59:24 10° W 17:03:45 22° NW 17:08:09 10° NNE
Cosmos 1486 Rocket 4.0 16:58:35 10° SSW 17:03:46 73° ESE 17:09:02 10° NNE
SJ-12 4.0 17:01:32 10° SE 17:05:07 42° ENE 17:08:43 10° N
Cosmos 2151 2.8 17:02:15 10° N 17:06:26 76° ENE 17:10:36 10° SSE
Cosmos 2360 4.2 17:02:12 10° SSW 17:07:53 76° ESE 17:13:39 10° NNE
Cosmos 2279 Rocket 4.1 17:05:38 10° SSW 17:11:51 83° W 17:18:08 10° N
Cosmos 1655 Rocket 4.3 17:06:13 10° N 17:12:10 43° ENE 17:18:02 10° SE
IGS 5A 3.9 17:10:13 10° S 17:14:08 61° W 17:18:06 10° NNW
Cosmos 1867 3.6 17:08:47 10° NW 17:14:17 85° SW 17:19:43 10° SE
Cosmos 1697 Rocket 3.1 17:09:27 10° S 17:14:44 44° ESE 17:19:15 14° NE
Cosmos 990 Rocket 4.5 17:10:30 10° S 17:15:12 38° ESE 17:19:09 14° NE
Cosmos 1953 Rocket 4.2 17:11:59 10° N 17:16:01 33° ENE 17:20:04 10° SE
MOS 1 Rocket 3.6 17:13:04 10° SSE 17:17:54 55° ENE 17:23:01 10° N
SAR-Lupe-4 3.5 17:14:58 10° SSE 17:18:29 63° ENE 17:22:01 10° N
IRIDIUM 106 4.3 17:14:40 10° N 17:19:55 80° E 17:25:09 10° S
NOSS 2-2 (D) 3.5 17:20:14 10° WSW 17:23:18 45° NW 17:25:11 19° NNE
Cosmos 1782 3.4 17:20:18 10° SSW 17:23:49 52° WNW 17:27:21 10° N
Cosmos 2084 Rocket 4.3 17:20:40 10° NW 17:24:45 50° SW 17:28:49 10° SSE
ARIANE 5 R/B 2.4 17:20:12 10° SSE 17:25:16 82° ENE 17:30:27 10° NNW
Cosmos 1825 Rocket 3.5 17:21:10 10° N 17:25:30 63° ENE 17:29:47 10° SSE
SAR-Lupe-1 3.9 17:25:47 10° SSE 17:29:21 73° ENE 17:32:59 10° N
Cosmos 2098 Rocket 3.7 17:27:48 10° SSW 17:32:02 62° WNW 17:37:03 10° N
Cosmos 1656 4.2 17:27:30 10° SW 17:33:05 59° NW 17:38:38 10° NNE
USA 81 4.5 17:28:15 10° N 17:33:11 39° ENE 17:38:05 10° SE
UNK 3.7 17:29:39 10° NNE 17:34:17 90° ESE 17:38:50 10° SSW
CZ-2D R/B 3.9 17:32:42 10° SE 17:36:36 39° ENE 17:40:28 10° N
NOSS 3-2 (A) 3.8 17:32:28 10° WSW 17:37:37 54° NW 17:42:25 17° NE
Gbstr 26 Del rocket 3.4 17:34:21 10° SW 17:38:09 39° SSE 17:39:37 27° ESE
NOSS 3-2 (C) 3.1 17:33:53 10° SW 17:39:00 85° SE 17:43:16 20° NE
SPOT 1/Viking Rocket 3.5 17:37:12 10° SSE 17:42:18 59° ENE 17:47:26 10° N
Cosmos 1076 Rocket 3.4 17:39:17 10° N 17:43:34 63° ENE 17:47:51 10° SSE
NOSS 2-2 (E) 3.8 17:40:49 10° WSW 17:43:47 37° NW 17:45:00 25° N
PSLV R/B 4.0 17:43:07 28° E 17:44:17 33° ENE 17:47:58 10° N
SMAP 3.9 17:39:49 10° S 17:44:22 54° W 17:48:58 10° NNW
[s.n.66845] 3.6 17:42:49 10° NNW 17:43:44 18° N 17:43:44 18° N
[s.n.66847] 3.6 17:43:15 10° NNW 17:44:11 18° N 17:44:11 18° N
Cosmos 2266 Rocket 4.3 17:40:01 10° NNW 17:46:08 67° W 17:52:07 10° S
[s.n.66846] 3.6 17:43:41 10° NNW 17:44:37 18° N 17:44:37 18° N
Cosmos 2082 4.0 17:41:08 10° NNW 17:46:38 45° NE 17:50:41 18° ESE
CZ-4C R/B 3.6 17:39:55 10° NW 17:46:44 58° SW 17:55:07 10° SSE
[s.n.66843] 3.6 17:44:13 10° NNW 17:45:08 18° N 17:45:08 18° N
[s.n.66844] 3.6 17:44:40 10° NNW 17:45:35 18° N 17:45:35 18° N
[s.n.66842] 3.6 17:45:12 10° NNW 17:46:06 18° N 17:46:06 18° N
SL-19 R/B 4.4 17:42:53 10° SE 17:48:03 47° ENE 17:53:31 10° N
[s.n.66841] 3.6 17:45:39 10° NNW 17:46:34 18° N 17:46:34 18° N
COSMO-SKYMED 1 3.6 17:49:12 25° ESE 17:49:12 25° ESE 17:51:52 10° SSE
[s.n.66840] 3.7 17:46:09 10° NNW 17:47:03 18° N 17:47:03 18° N
Landsat 7 4.3 17:44:33 10° S 17:49:09 62° W 17:53:47 10° NNW
[s.n.66838] 3.7 17:46:38 10° NNW 17:47:32 18° N 17:47:32 18° N
[s.n.66839] 3.7 17:47:08 10° NNW 17:48:01 18° N 17:48:01 18° N
IRS-P3 4.1 17:44:31 10° SSE 17:49:51 88° WSW 17:55:12 10° NNW
SJ-6F 4.3 17:46:01 10° SSE 17:50:00 87° WSW 17:54:03 10° NNW
[s.n.66837] 3.7 17:47:35 10° NNW 17:48:28 17° N 17:48:28 17° N
Cosmos 2058 Rocket 3.7 17:46:13 10° SSE 17:50:16 35° E 17:50:45 34° ENE
[s.n.66836] 3.7 17:48:06 10° NNW 17:48:58 17° N 17:48:58 17° N
[s.n.66835] 3.7 17:48:36 10° NNW 17:49:28 17° N 17:49:28 17° N
[s.n.66834] 3.7 17:49:05 10° NNW 17:49:57 17° N 17:49:57 17° N
Cosmos 2297 Rocket 4.0 17:46:45 10° NW 17:51:46 33° WSW 17:56:45 10° SSW
[s.n.66833] 3.7 17:49:32 10° NNW 17:50:23 17° N 17:50:23 17° N
[s.n.66832] 3.7 17:50:04 10° NNW 17:50:56 17° NNW 17:50:56 17° NNW
[s.n.66831] 3.7 17:50:30 10° NNW 17:51:21 17° NNW 17:51:21 17° NNW
[s.n.66830] 3.7 17:50:56 10° NNW 17:51:47 17° NNW 17:51:47 17° NNW
[s.n.66828] 3.7 17:51:21 10° NNW 17:52:12 17° NNW 17:52:12 17° NNW
[s.n.66829] 3.7 17:51:53 10° NNW 17:52:44 17° NNW 17:52:44 17° NNW
[s.n.66827] 3.8 17:52:25 10° NNW 17:53:15 17° NNW 17:53:15 17° NNW
[s.n.66826] 3.8 17:52:55 10° NNW 17:53:45 17° NNW 17:53:45 17° NNW
[s.n.66825] 3.8 17:53:22 10° NNW 17:54:11 17° NNW 17:54:11 17° NNW
[s.n.66824] 3.8 17:53:53 10° NNW 17:54:42 17° NNW 17:54:42 17° NNW
[s.n.66823] 3.8 17:54:24 10° NNW 17:55:13 17° NNW 17:55:13 17° NNW
[s.n.66822] 3.8 17:54:53 10° NNW 17:55:41 17° NNW 17:55:41 17° NNW
[s.n.66821] 3.8 17:55:21 10° NNW 17:56:10 17° NNW 17:56:10 17° NNW
Cosmos 1538 Rocket 3.9 17:53:52 10° NNW 17:59:10 81° ENE 18:04:30 10° SSE
Cosmos 1606 Rocket 3.7 17:56:55 10° SSW 18:01:19 74° WNW 18:05:40 11° N
Meteor 1-26 Rocket 4.4 17:59:04 10° SSE 18:04:07 43° E 18:05:35 35° NE
Lacrosse 5 rocket 2.1 18:08:01 10° WNW 18:11:16 31° N 18:11:16 31° N
Cosmos 1553 Rocket 4.2 18:05:45 10° SSE 18:11:34 45° E 18:14:52 25° NNE
Cosmos 2219 3.1 18:06:34 10° NNW 18:12:20 77° ENE 18:17:57 11° SE
GEOS 3 Rocket 3.8 18:09:53 28° NE 18:12:46 71° NW 18:18:06 10° SW
BREEZE-M DEB (TANK) 3.0 18:11:05 10° SW 18:12:04 28° SW 18:12:04 28° SW
Resurs 1-3 3.4 18:08:48 10° SSE 18:13:04 72° ENE 18:17:23 10° N
SL-16 R/B 4.0 18:11:11 10° N 18:16:43 35° WNW 18:22:12 10° WSW
Lacrosse 4 Rocket 3.9 18:17:03 10° NW 18:18:02 11° NNW 18:18:59 10° N
Cosmos 1980 Rocket 2.2 18:12:33 10° SSW 18:18:06 62° ESE 18:19:44 44° NE
Cosmos 1844 Rocket 3.4 18:14:15 10° NNW 18:18:59 35° NE 18:18:59 35° NE
Cosmos 1354 Rocket 4.4 18:14:15 10° SW 18:19:27 61° WNW 18:22:53 21° NNE
CENTAUR R/B 3.8 18:14:27 10° WNW 18:20:23 35° NNW 18:24:02 23° NNE
Meteor 2-20 4.4 18:15:49 10° S 18:21:58 89° E 18:28:10 10° N
USA 281 4.4 18:22:44 24° NNE 18:22:44 24° NNE 18:27:16 10° NNW
NOSS 2-3 (C) 3.5 18:21:10 10° SW 18:23:55 52° SSW 18:23:55 52° SSW
Spot 4 Rocket 4.0 18:19:47 10° SSE 18:24:54 86° WSW 18:30:04 10° NNW
Cosmos 1726 Rocket 4.2 18:20:40 10° SSW 18:25:15 59° WNW 18:28:51 16° N
Cosmos 1745 Rocket 4.3 18:19:42 10° N 18:24:48 41° NE 18:24:48 41° NE
Cosmos 2263 Rocket 2.6 18:21:21 10° NW 18:26:58 63° WSW 18:32:34 10° SSE
Cosmos 1898 Rocket 3.4 18:25:15 10° S 18:30:11 58° ESE 18:30:11 58° ESE
Cosmos 2369 4.0 18:25:42 10° S 18:30:42 46° SE 18:30:42 46° SE
Cosmos 1244 Rocket 4.4 18:25:02 10° N 18:31:21 86° ENE 18:37:34 10° S
Cosmos 1461 3.9 18:28:31 10° WSW 18:32:07 34° NW 18:32:37 33° NNW
Cosmos 44 Rocket 4.1 18:28:01 10° NNW 18:32:08 39° NNE 18:32:08 39° NNE
YAOGAN 1 2.8 18:32:30 10° S 18:36:44 66° WSW 18:40:59 10° NNW
SKYMED 2 3.8 18:36:02 47° N 18:37:10 70° WNW 18:41:29 10° SSW
Cosmos-2242 3.1 18:33:01 10° S 18:36:35 63° S 18:36:35 63° S
Meteor 1-17 Rocket 4.5 18:32:13 10° N 18:37:49 73° ENE 18:40:26 32° SSE
USA 238 DEB 3.4 18:33:34 10° SSW 18:39:41 75° SE 18:41:14 54° ENE
USA 238 3.4 18:33:40 10° SSW 18:39:48 75° SE 18:41:19 54° ENE
Cosmos 923 Rocket 3.8 18:35:49 10° NNW 18:41:03 81° ENE 18:41:32 73° SE
USA 215 3.4 18:41:10 49° ENE 18:42:38 60° NNE 18:49:04 10° WNW
Cosmos 372 Rocket 3.8 18:37:36 10° SSW 18:42:46 87° ESE 18:43:10 76° NE
Cosmos 2227 Rocket 4.1 18:38:19 10° NW 18:43:08 30° WSW 18:47:58 10° SSW
Cosmos 1943 Rocket 4.4 18:41:54 10° N 18:42:28 11° N 18:42:28 11° N
Meteor 2-20 Rocket 4.3 18:37:28 10° S 18:43:42 87° W 18:48:13 19° N
SL-08 R/B 4.4 18:39:40 10° N 18:46:02 89° WSW 18:52:23 10° S
Cosmos 1937 Rocket 4.1 18:43:58 10° S 18:47:30 42° S 18:47:30 42° S
BREEZE-M DEB (TANK) 4.4 18:46:47 10° WNW 18:50:57 90° SW 18:54:54 41° ESE
Cosmos 1386 Rocket 4.3 18:45:09 10° N 18:51:15 77° E 18:57:26 10° SSE
NOSS 2-3 (E) 4.3 18:47:51 10° WSW 18:50:28 41° W 18:50:28 41° W
NOSS 2-3 (D) 4.4 18:48:25 10° WSW 18:51:00 41° W 18:51:00 41° W
Cosmos 1697 Rocket 3.8 18:53:29 10° WSW 18:58:45 40° NW 19:00:59 28° N
Aureole 1 Rocket 3.7 18:54:47 10° SW 18:59:24 66° WNW 19:00:03 60° NNW
Resurs 01 Rocket 4.2 19:07:10 11° NNW 19:07:10 11° NNW 19:07:23 10° NNW
Cosmos 2278 Rocket 4.5 19:01:00 10° N 19:01:48 12° N 19:01:48 12° N
Cosmos 1680 Rocket 4.2 19:08:14 10° NNW 19:12:02 48° NW 19:12:02 48° NW
COSMOS 2455 4.2 19:10:12 10° SSW 19:12:49 26° S 19:12:49 26° S
NOSS 3-2 (C) 4.5 19:25:28 10° W 19:30:33 35° NNW 19:30:40 35° NNW
Cosmos 1980 Rocket 3.8 19:57:28 10° WSW 20:01:31 30° WNW 20:01:31 30° WNW
Cosmos 1844 Rocket 4.4 19:58:04 10° NW 20:00:39 27° NW 20:00:39 27° NW
CENTAUR R/B 4.2 20:06:24 10° NW 20:11:08 32° NNW 20:11:08 32° NNW
USA 215 4.5 20:28:32 36° WNW 20:28:32 36° WNW 20:32:10 10° WNW
